Date String (YYYY-MM-DD hh:mm:ss) UTC,Instrument flags,Ambient pressure (hPa),Sample flow (lpm),Bypass flow (lpm),Sample temperature (°C),Ambient temperature (°C),ASC tube jacket temperature (°C),LED temperature (°C),Box temperature (°C),Sample RH (%),Span deviation,Mass concentration (μg/m³),Mass concentration (μg/m³),Mass concentration (μg/m³)
DateTimeUTC,F1_M11,P_M11,Q1_M11,Q2_M11,T1_M11,T2_M11,T3_M11,T4_M11,T5_M11,U1_M11,ZSPAN_M11,X0_M11,X2_M11,X1_M11
2022-08-17 13:00:00,,0833.5,5.00,0.00,29.8,28.8,00.0,38.5,31.7,31.6,0000.0,0011.24,0006.47,0005.69
2022-08-17 13:01:00,,0833.5,5.01,0.00,29.8,28.8,00.0,38.5,31.7,31.6,0000.0,0011.18,0006.48,0005.68
2022-08-17 13:02:00,,0833.4,4.99,0.00,29.8,28.8,00.0,38.5,31.7,31.7,0000.0,0011.29,0006.47,0005.68
2022-08-17 13:03:00,,0833.4,5.01,0.00,29.8,28.8,00.0,38.6,31.7,31.7,0000.0,0011.13,0006.47,0005.68
2022-08-17 13:04:00,,0833.4,5.01,0.00,29.8,28.8,00.0,38.6,31.7,31.5,0000.0,0011.09,0006.48,0005.69
2022-08-17 13:05:00,,0833.4,4.99,0.00,29.9,28.9,00.0,38.6,31.7,31.5,0000.0,0011.16,0006.52,0005.71
2022-08-17 13:06:00,,0833.4,5.00,0.00,29.9,28.9,00.0,38.6,31.7,31.6,0000.0,0010.95,0006.53,0005.75
2022-08-17 13:07:00,,0833.4,5.01,0.00,29.9,28.9,00.0,38.6,31.8,31.7,-000.0,0010.66,0006.52,0005.77
2022-08-17 13:08:00,,0833.4,4.99,0.00,29.9,28.9,00.0,38.6,31.8,31.7,-001.9,0010.71,0006.52,0005.79
2022-08-17 13:09:00,,0833.4,5.00,0.00,29.9,28.9,00.0,38.6,31.8,32.0,-002.4,0010.69,0006.53,0005.80
2022-08-17 13:10:00,,0833.5,5.00,0.00,29.9,29.0,00.0,38.7,31.8,32.1,-002.5,0010.74,0006.56,0005.83
2022-08-17 13:11:00,,0833.5,5.00,0.00,30.0,29.0,00.0,38.7,31.9,32.2,-002.5,0011.12,0006.54,0005.85
2022-08-17 13:12:00,,0833.5,4.99,0.00,30.0,29.0,00.0,38.7,31.9,32.2,-002.6,0011.61,0006.54,0005.87
2022-08-17 13:13:00,,0833.5,5.00,0.00,30.0,29.0,00.0,38.7,31.9,32.6,-003.1,0011.68,0006.58,0005.89
2022-08-17 13:14:00,,0833.6,5.00,0.00,30.0,29.0,00.0,38.7,31.9,32.6,-001.0,0012.06,0006.57,0005.90
2022-08-17 13:15:00,,0833.5,5.01,0.00,30.0,29.0,00.0,38.7,31.9,32.5,0000.0,0012.26,0006.61,0005.92
2022-08-17 13:16:00,,0833.5,4.99,0.00,30.0,29.0,00.0,38.7,31.9,32.6,0000.0,0012.21,0006.62,0005.93
2022-08-17 13:17:00,,0833.6,5.01,0.00,30.0,29.1,00.0,38.8,32.0,32.5,0000.0,0012.41,0006.64,0005.91
2022-08-17 13:18:00,,0833.5,5.00,0.00,30.1,29.1,00.0,38.8,32.0,32.6,0000.0,0012.49,0006.65,0005.91
2022-08-17 13:19:00,,0833.6,5.00,0.00,30.1,29.1,00.0,38.8,32.0,32.4,0000.0,0012.44,0006.66,0005.90
2022-08-17 13:20:00,,0833.6,4.98,0.00,30.1,29.1,00.0,38.8,32.0,32.3,0000.0,0012.48,0006.68,0005.90
2022-08-17 13:21:00,,0833.6,5.01,0.00,30.1,29.1,00.0,38.8,32.0,32.3,0000.0,0012.55,0006.70,0005.90
2022-08-17 13:22:00,,0833.6,5.00,0.00,30.1,29.1,00.0,38.8,32.0,31.5,0000.0,0012.31,0006.75,0005.91
2022-08-17 13:23:00,,0833.6,5.00,0.00,30.1,29.1,00.0,38.8,32.0,31.5,0000.0,0011.70,0006.78,0005.92
2022-08-17 13:24:00,,0833.6,4.99,0.00,30.1,29.1,00.0,38.8,32.0,31.6,0000.0,0011.10,0006.78,0005.93
2022-08-17 13:25:00,,0833.7,5.00,0.00,30.1,29.2,00.0,38.9,32.0,31.6,0000.0,0010.85,0006.80,0005.97
2022-08-17 13:26:00,,0833.6,4.99,0.00,30.2,29.2,00.0,38.9,32.0,32.1,0000.0,0010.64,0006.80,0005.99
2022-08-17 13:27:00,,0833.6,4.99,0.00,30.2,29.2,00.0,38.9,32.1,32.0,0000.0,0010.69,0006.81,0006.00
2022-08-17 13:28:00,,0833.6,4.99,0.00,30.2,29.2,00.0,38.9,32.1,32.0,0000.0,0010.86,0006.79,0006.03
2022-08-17 13:29:00,,0833.6,5.00,0.00,30.2,29.2,00.0,38.9,32.1,32.2,0000.0,0011.90,0006.82,0006.07
2022-08-17 13:30:00,,0833.6,4.99,0.00,30.2,29.2,00.0,38.9,32.1,32.5,0000.0,0012.05,0006.83,0006.09
2022-08-17 13:31:00,,0833.6,5.01,0.00,30.2,29.2,00.0,38.9,32.1,32.7,0000.0,0011.85,0006.81,0006.12
2022-08-17 13:32:00,,0833.6,4.99,0.00,30.2,29.2,00.0,38.9,32.1,32.3,0000.0,0011.78,0006.77,0006.14
2022-08-17 13:33:00,,0833.6,5.01,0.00,30.2,29.2,00.0,39.0,32.1,32.5,0000.0,0011.95,0006.71,0006.14
2022-08-17 13:34:00,,0833.6,5.01,0.00,30.2,29.2,00.0,39.0,32.1,32.3,0000.0,0011.83,0006.71,0006.15
2022-08-17 13:35:00,,0833.6,4.99,0.00,30.2,29.2,00.0,39.0,32.1,32.0,0000.0,0011.81,0006.73,0006.19
2022-08-17 13:36:00,,0833.6,5.00,0.00,30.2,29.2,00.0,39.0,32.1,32.1,-000.0,0011.88,0006.77,0006.20
2022-08-17 13:37:00,,0833.6,4.99,0.00,30.2,29.2,00.0,39.0,32.1,32.1,-000.1,0011.98,0006.81,0006.22
2022-08-17 13:38:00,,0833.6,5.00,0.00,30.3,29.2,00.0,39.0,32.1,32.5,0000.0,0011.95,0006.83,0006.25
2022-08-17 13:39:00,,0833.6,5.01,0.00,30.3,29.2,00.0,39.0,32.1,32.6,0000.0,0012.22,0006.87,0006.27
2022-08-17 13:40:00,,0833.6,4.99,0.00,30.3,29.2,00.0,39.0,32.1,32.3,-000.4,0011.78,0006.90,0006.29
2022-08-17 13:41:00,,0833.6,5.01,0.00,30.3,29.2,00.0,39.0,32.1,32.3,-000.3,0011.58,0006.91,0006.32
2022-08-17 13:42:00,,0833.6,4.99,0.00,30.3,29.2,00.0,39.0,32.1,32.3,-001.2,0011.73,0006.96,0006.35
2022-08-17 13:43:00,,0833.7,5.00,0.00,30.3,29.2,00.0,39.0,32.1,32.7,-001.2,0011.84,0007.02,0006.38
2022-08-17 13:44:00,,0833.6,5.01,0.00,30.3,29.3,00.0,39.1,32.1,33.1,-001.5,0011.63,0007.04,0006.39
2022-08-17 13:45:00,,0833.6,4.99,0.00,30.3,29.3,00.0,39.1,32.2,33.1,-001.5,0011.62,0007.03,0006.39
2022-08-17 13:46:00,,0833.6,5.01,0.00,30.3,29.3,00.0,39.1,32.2,33.2,-002.2,0011.75,0007.06,0006.38
2022-08-17 13:47:00,,0833.6,4.99,0.00,30.3,29.3,00.0,39.1,32.2,33.1,-002.1,0011.82,0007.07,0006.37
2022-08-17 13:48:00,,0833.6,5.01,0.00,30.3,29.3,00.0,39.1,32.2,32.4,-001.9,0011.68,0007.03,0006.35
2022-08-17 13:49:00,,0833.6,5.00,0.00,30.3,29.3,00.0,39.1,32.2,32.5,-001.8,0012.34,0007.04,0006.34
2022-08-17 13:50:00,,0833.6,4.99,0.00,30.3,29.3,00.0,39.1,32.2,32.8,-001.6,0012.10,0007.03,0006.31
2022-08-17 13:51:00,,0833.7,5.01,0.00,30.3,29.3,00.0,39.1,32.2,32.3,-001.3,0011.60,0007.01,0006.29
2022-08-17 13:52:00,,0833.7,5.00,0.00,30.3,29.3,00.0,39.1,32.1,31.8,-001.5,0011.66,0007.02,0006.26
2022-08-17 13:53:00,,0833.7,5.01,0.00,30.3,29.3,00.0,39.1,32.1,32.0,-001.1,0011.81,0007.03,0006.22
2022-08-17 13:54:00,,0833.7,5.00,0.00,30.3,29.3,00.0,39.1,32.1,32.7,-001.3,0011.61,0006.97,0006.19
2022-08-17 13:55:00,,0833.7,5.01,0.00,30.3,29.2,00.0,39.1,32.1,32.8,-001.5,0011.51,0006.94,0006.17
2022-08-17 13:56:00,,0833.7,4.99,0.00,30.3,29.2,00.0,39.1,32.1,33.2,-002.1,0011.61,0006.95,0006.17
2022-08-17 13:57:00,,0833.7,5.00,0.00,30.3,28.7,00.0,39.0,32.0,32.9,-001.8,0011.58,0006.92,0006.17
2022-08-17 13:58:00,,0833.7,5.01,0.00,30.2,28.0,00.0,39.0,31.8,32.9,-000.4,0011.35,0006.85,0006.17
2022-08-17 13:59:00,,0833.7,4.99,0.00,30.1,27.7,00.0,38.9,31.7,32.7,0000.0,0011.34,0006.88,0006.18
